[[{"header":{"parameterUnit":"m.s-1","parameterCategory":2,"la1":30.2991,"la2":30.254,"lo1":-89.0895,"lo2":-89.0444,"dx":0.0017,"dy":0.0017,"nx":28,"ny":28,"refTime":"2022-11-17T15:00:00:Z","depth":"0","parameterNumber":2,"parameterNumberName":"U-component_of_CURRENTS"},"data":[0,0,0,0,0,0,0,0,0,0,0,0,0,0,0,0,0,0,0,0,0,0,0,0,0,0,0,0,0,0,0,0,0,0,0,0,0,0,0,0,0,0,0,0,0,0,0,0,0,0,0,0,0,0,0,0,0,0,0.2264,0.2265,0,0.2324,0.2325,0.2325,0.2355,0.2355,0.2355,0.2355,0.2382,0.2383,0.2383,0,0,0,0,0,0,0,0,0,0,0,0,0,0.2188,0.2189,0.2264,0.2265,0.2266,0.2324,0.2325,0.2325,0.2355,0.2355,0.2355,0.2355,0.2382,0.2382,0.2383,0,0,0,0,0,0,0,0,0,0,0,0,0,0.2231,0.2189,0.2264,0.2288,0.2291,0.2324,0.2325,0.2326,0.2355,0.2355,0.2355,0.2355,0.2381,0.2382,0.2383,0.2387,0,0,0.2386,0.2387,0,0,0,0,0,0,0,0,0.2228,0.2234,0.2284,0.2286,0.229,0.2333,0.2308,0.2345,0.2355,0.233,0.2355,0.2355,0.2363,0.2365,0.2376,0.2389,0.239,0.2386,0.2387,0.2387,0.2388,0,0,0,0,0,0,0,0.2225,0.2231,0.2287,0.2285,0.2288,0.23,0.2306,0.2315,0.2344,0.2332,0.2335,0.2342,0.2364,0.2375,0.2377,0.239,0.2386,0.2387,0.2388,0.2388,0.2411,0.2411,0,0,0,0,0,0,0.2219,0.2229,0.2285,0.2289,0.2259,0.2301,0.2308,0.2318,0.2345,0.2349,0.2342,0.2343,0.2373,0.2375,0.2378,0.2418,0.2387,0.2388,0.2389,0.2411,0.2411,0.2411,0,0,0,0,0,0,0.2217,0.2223,0.2283,0.226,0.2269,0.2302,0.2314,0.2319,0.2334,0.2353,0.2356,0.2351,0.2373,0.2376,0.2388,0.2418,0.2389,0.239,0.2411,0.2411,0.2411,0.2477,0,0,0,0,0,0,0.2215,0.2222,0.2226,0.226,0.227,0.231,0.2314,0.232,0.2339,0.2341,0.2362,0.2364,0.2374,0.2387,0.2389,0.2419,0.239,0.2411,0.2411,0.2411,0.2475,0.2479,0.2483,0,0,0,0,0,0.2212,0.2216,0.2225,0.2232,0.2274,0.2311,0.2317,0.234,0.2339,0.2352,0.2359,0.2364,0.2388,0.2388,0.2391,0.2421,0.2411,0.2411,0.2411,0.2473,0.2478,0.2483,0,0,0,0,0,0,0.2185,0.222,0.2232,0.2247,0.228,0.2316,0.2326,0.234,0.2357,0.2357,0.2366,0.237,0.2394,0.2386,0.2385,0.2423,0.2399,0.24,0.2445,0.245,0.2454,0.2468,0.2391,0,0,0,0,0,0.218,0.2192,0.2232,0.2245,0.226,0.2292,0.2307,0.2328,0.2349,0.2357,0.2375,0.2383,0.2396,0.2405,0.2415,0.2434,0.2438,0.2451,0.2456,0.2459,0.2469,0.2493,0.2501,0.2411,0.2411,0.2411,0,0,0.2173,0.2194,0.2201,0.224,0.2263,0.23,0.2301,0.2331,0.2364,0.2356,0.2396,0.24,0.2402,0.2431,0.2441,0.2431,0.2486,0.2459,0.2463,0.2471,0.2494,0.2503,0.2511,0.2411,0.2411,0.2411,0,0,0.2177,0.2185,0.2205,0.2235,0.2276,0.23,0.2309,0.2354,0.2374,0.241,0.2412,0.2431,0.2452,0.2469,0.2475,0.2502,0.2507,0.2499,0.2539,0.2563,0.2571,0.2579,0.2601,0.261,0.2503,0.2503,0.2503,0,0.2173,0.2202,0.2217,0.2252,0.2277,0.2301,0.2339,0.2366,0.2412,0.2432,0.2429,0.2471,0.2475,0.2512,0.2527,0.2517,0.2526,0.2527,0.2572,0.2579,0.2585,0.2606,0.2615,0.2506,0.2506,0.2506,0.2506,0,0.2203,0.2228,0.2241,0.2293,0.2321,0.2354,0.2398,0.2428,0.245,0.2482,0.2524,0.2533,0.2557,0.2564,0.2559,0.2606,0.2598,0.2577,0.2567,0.2599,0.2618,0.2627,0.2511,0.251,0.2509,0.2508,0,0,0.2193,0.2253,0.2257,0.2288,0.2346,0.2374,0.2424,0.248,0.2512,0.2555,0.2599,0.263,0.2633,0.2639,0.2636,0.2662,0.2721,0.2645,0.2645,0.2682,0.2778,0.2764,0.2771,0.2712,0.2714,0.2715,0.2776,0,0.2218,0.2276,0.2303,0.2362,0.2398,0.2435,0.2479,0.2529,0.2566,0.2614,0.2636,0.2671,0.2661,0.2672,0.2701,0.2714,0.2744,0.2706,0.2728,0.2729,0.2725,0.2781,0.268,0.2726,0.2784,0.2785,0.2786,0,0.2241,0.2278,0.2334,0.2399,0.2417,0.2453,0.2518,0.2566,0.2631,0.2659,0.2701,0.2715,0.2766,0.2741,0.2801,0.2778,0.2787,0.2796,0.2798,0.2768,0.273,0.27,0.2738,0.2706,0.2799,0.2798,0.2797,0,0.2221,0.2298,0.2336,0.2361,0.2439,0.2466,0.251,0.2576,0.2621,0.2686,0.2724,0.2771,0.2807,0.2827,0.2857,0.283,0.2921,0.2877,0.2875,0.2874,0.2785,0.2773,0.2807,0.2921,0.2921,0.2921,0.2921,0,0.223,0.2263,0.2328,0.2349,0.2396,0.2459,0.2509,0.2559,0.2637,0.2698,0.2742,0.2801,0.2833,0.2887,0.2887,0.2924,0.2946,0.2903,0.2897,0.2804,0.2793,0.2756,0.2737,0.2923,0.2923,0.2922,0.2922,0,0.2201,0.2242,0.2292,0.2366,0.2385,0.242,0.2504,0.2545,0.2626,0.2709,0.2735,0.2842,0.292,0.2951,0.3,0.2973,0.2926,0.2997,0.289,0.2871,0.2811,0.2798,0.2718,0.2631,0.2993,0.2993,0.2993,0,0.2199,0.2219,0.2281,0.23,0.233,0.2386,0.2422,0.2518,0.2574,0.2738,0.2781,0.2898,0.2979,0.3057,0.303,0.3035,0.2954,0.2931,0.2857,0.2819,0.2801,0.2692,0.2615,0.2764,0.2763,0.2761,0.276,0,0.2188,0.2197,0.2224,0.2257,0.2291,0.234,0.2411,0.2451,0.2582,0.2663,0.2798,0.2885,0.3001,0.2979,0.2998,0.2981,0.2807,0.2901,0.2884,0.2656,0.2516,0.2424,0.2719,0.2747,0.2748,0.2749,0.275,0.2751,0.2162,0.2166,0.2181,0.2206,0.2244,0.228,0.2289,0.2381,0.2459,0.2556,0.2711,0.2785,0.287,0.2895,0.2871,0.2785,0.2748,0.2686,0.2685,0.2588,0.2465,0.2745,0.2751,0.2753,0.2754,0.2755,0.2756,0,0.2104,0.2108,0.2134,0.2144,0.2147,0.2198,0.2263,0.2261,0.2307,0.2433,0.2517,0.26,0.2621,0.268,0.2678,0.2584,0.2433,0.2515,0.2338,0.2279,0.2556,0.2511,0.2438,0.2438,0.2438,0.2438,0.2438,0.2438,0.207,0.2047,0.2053,0.2028,0.2044,0.2022,0.2036,0.2059,0.2124,0.2168,0.2215,0.229,0.2531,0.2641,0.2596,0.2507,0.2307,0.2197,0.219,0.2413,0.2427,0.2442,0.2395,0.23,0.23,0.1795,0.1792,0.1789]},{"header":{"parameterUnit":"m.s-1","parameterCategory":2,"la1":30.2991,"la2":30.254,"lo1":-89.0895,"lo2":-89.0444,"dx":0.0017,"dy":0.0017,"nx":28,"ny":28,"refTime":"2022-11-17T15:00:00:Z","depth":"0","parameterNumber":3,"parameterNumberName":"V-component_of_CURRENTS"},"data":[0,0,0,0,0,0,0,0,0,0,0,0,0,0,0,0,0,0,0,0,0,0,0,0,0,0,0,0,0,0,0,0,0,0,0,0,0,0,0,0,0,0,0,0,0,0,0,0,0,0,0,0,0,0,0,0,0,0,-0.0357,-0.0357,0,-0.0437,-0.0439,-0.044,-0.0513,-0.0513,-0.0514,-0.0514,-0.0684,-0.0688,-0.0691,0,0,0,0,0,0,0,0,0,0,0,0,0,-0.0304,-0.0305,-0.0357,-0.0357,-0.0358,-0.0437,-0.0439,-0.044,-0.0513,-0.0513,-0.0514,-0.0515,-0.0682,-0.0687,-0.0692,0,0,0,0,0,0,0,0,0,0,0,0,0,-0.0354,-0.0305,-0.0357,-0.0401,-0.0405,-0.0437,-0.0439,-0.0441,-0.0513,-0.0513,-0.0514,-0.0515,-0.0681,-0.0687,-0.0693,-0.0714,0,0,-0.0711,-0.0714,0,0,0,0,0,0,0,0,-0.0351,-0.0356,-0.0394,-0.0398,-0.0403,-0.0463,-0.0482,-0.0535,-0.0512,-0.0476,-0.0514,-0.0515,-0.0615,-0.0626,-0.0644,-0.0722,-0.0729,-0.0711,-0.0715,-0.0718,-0.0719,0,0,0,0,0,0,0,-0.0347,-0.0353,-0.0393,-0.0394,-0.04,-0.043,-0.0438,-0.0493,-0.0545,-0.0479,-0.0484,-0.0486,-0.0619,-0.0638,-0.0649,-0.0732,-0.0711,-0.0717,-0.072,-0.0723,-0.083,-0.0829,0,0,0,0,0,0,-0.0327,-0.035,-0.039,-0.0395,-0.0374,-0.043,-0.0439,-0.0446,-0.0542,-0.0556,-0.0486,-0.0489,-0.0627,-0.0641,-0.0655,-0.0691,-0.0718,-0.0723,-0.0727,-0.0831,-0.083,-0.0829,0,0,0,0,0,0,-0.0325,-0.033,-0.0387,-0.0371,-0.038,-0.0429,-0.0437,-0.0447,-0.0462,-0.0545,-0.0562,-0.049,-0.0628,-0.0646,-0.0703,-0.0698,-0.0726,-0.0732,-0.0832,-0.083,-0.0829,-0.076,0,0,0,0,0,0,-0.0324,-0.0329,-0.0324,-0.0369,-0.038,-0.04,-0.0436,-0.0448,-0.0461,-0.0467,-0.0554,-0.0571,-0.063,-0.0693,-0.0709,-0.0707,-0.0736,-0.0833,-0.0831,-0.083,-0.0763,-0.0757,-0.0751,0,0,0,0,0,-0.0322,-0.0309,-0.0324,-0.0328,-0.0373,-0.0399,-0.0407,-0.0448,-0.046,-0.0465,-0.0525,-0.0568,-0.0695,-0.0698,-0.0716,-0.0716,-0.0833,-0.0831,-0.083,-0.0766,-0.0758,-0.0751,0,0,0,0,0,0,-0.0277,-0.0316,-0.0333,-0.0331,-0.036,-0.041,-0.0411,-0.0436,-0.0485,-0.0492,-0.0569,-0.0591,-0.0639,-0.0679,-0.0681,-0.0739,-0.0767,-0.0768,-0.0712,-0.0705,-0.0699,-0.0663,-0.0741,0,0,0,0,0,-0.0264,-0.0272,-0.0309,-0.0309,-0.0316,-0.036,-0.0373,-0.0401,-0.0448,-0.0469,-0.0531,-0.0591,-0.0645,-0.0675,-0.0733,-0.0766,-0.0784,-0.0772,-0.0766,-0.0761,-0.0742,-0.077,-0.0765,-0.0823,-0.0823,-0.0823,0,0,-0.0251,-0.0268,-0.0275,-0.03,-0.0324,-0.0337,-0.0371,-0.0385,-0.0401,-0.0481,-0.0522,-0.0579,-0.065,-0.0693,-0.0716,-0.0727,-0.075,-0.0759,-0.0754,-0.0738,-0.0768,-0.0762,-0.0757,-0.0822,-0.0822,-0.0822,0,0,-0.0226,-0.0236,-0.0238,-0.0254,-0.028,-0.0309,-0.0306,-0.0354,-0.0377,-0.0421,-0.048,-0.0523,-0.0611,-0.0655,-0.0689,-0.0677,-0.072,-0.0696,-0.0637,-0.0664,-0.066,-0.0656,-0.0654,-0.0651,-0.0688,-0.0688,-0.0688,0,-0.0205,-0.0214,-0.0241,-0.0242,-0.0245,-0.029,-0.0288,-0.032,-0.0383,-0.0388,-0.0424,-0.0523,-0.059,-0.0625,-0.0626,-0.0664,-0.0676,-0.0663,-0.0656,-0.0653,-0.065,-0.065,-0.0647,-0.0684,-0.0685,-0.0685,-0.0685,0,-0.0189,-0.0192,-0.0186,-0.0209,-0.0216,-0.0218,-0.0256,-0.027,-0.0301,-0.0333,-0.0371,-0.0458,-0.0506,-0.0538,-0.0586,-0.0594,-0.0607,-0.065,-0.0673,-0.064,-0.0641,-0.064,-0.0679,-0.068,-0.0681,-0.0682,0,0,-0.0143,-0.0174,-0.0168,-0.0165,-0.0194,-0.0192,-0.0205,-0.022,-0.0212,-0.0277,-0.0272,-0.0365,-0.0393,-0.043,-0.0493,-0.0519,-0.0518,-0.0567,-0.0571,-0.0561,-0.0555,-0.0549,-0.0547,-0.0565,-0.0564,-0.0564,-0.0558,0,-0.0119,-0.0115,-0.0135,-0.012,-0.0115,-0.014,-0.0145,-0.0161,-0.0187,-0.0197,-0.0257,-0.0292,-0.0358,-0.0381,-0.0414,-0.0501,-0.0513,-0.0514,-0.0592,-0.0593,-0.0589,-0.0545,-0.0532,-0.0524,-0.0556,-0.0556,-0.0556,0,-0.0088,-0.0088,-0.0074,-0.0067,-0.0063,-0.0058,-0.004,-0.0055,-0.0076,-0.0094,-0.012,-0.0175,-0.0218,-0.0287,-0.0378,-0.0376,-0.0445,-0.0509,-0.0512,-0.0527,-0.0584,-0.0567,-0.052,-0.0667,-0.0554,-0.0554,-0.0554,0,-0.0033,-0.0032,-0.0016,-0.0015,-0.0025,-0.0001,-0.0002,-0.0012,-0.0004,-0.0022,-0.0014,-0.0078,-0.011,-0.0202,-0.0324,-0.0353,-0.0421,-0.0482,-0.0531,-0.0531,-0.0543,-0.0544,-0.0643,-0.0529,-0.0529,-0.0529,-0.0529,0,0.0007,0.0025,0.0017,0.003,0.0077,0.0055,0.0104,0.0093,0.0089,0.0125,0.0047,0.006,-0.0094,-0.0156,-0.0274,-0.0378,-0.0377,-0.0496,-0.0526,-0.0516,-0.0515,-0.0664,-0.0757,-0.0528,-0.0528,-0.0528,-0.0528,0,0.0057,0.004,0.0071,0.0084,0.0101,0.0137,0.0175,0.0209,0.0189,0.0233,0.0233,0.0166,0.0092,-0.0049,-0.0196,-0.0304,-0.0494,-0.0456,-0.0416,-0.0441,-0.063,-0.0718,-0.0837,-0.0892,-0.0501,-0.0501,-0.0501,0,0.0071,0.0089,0.013,0.0164,0.0176,0.0227,0.027,0.0265,0.031,0.0311,0.035,0.0283,0.0276,0.0074,-0.0136,-0.0309,-0.0473,-0.0425,-0.0484,-0.0614,-0.0736,-0.0811,-0.0854,-0.0468,-0.0467,-0.0467,-0.0467,0,0.0113,0.0131,0.0164,0.0239,0.0298,0.036,0.0424,0.0475,0.0486,0.0537,0.0589,0.0579,0.0374,0.0203,-0.0063,-0.0208,-0.0529,-0.0423,-0.0581,-0.0722,-0.0787,-0.0863,-0.0484,-0.0463,-0.0464,-0.0464,-0.0464,-0.0464,0.0158,0.0195,0.0249,0.0329,0.0397,0.0496,0.0581,0.0658,0.0758,0.0854,0.0801,0.0829,0.0503,0.0145,-0.0073,-0.0488,-0.051,-0.062,-0.0714,-0.0774,-0.0841,-0.0432,-0.0439,-0.0439,-0.0439,-0.0439,-0.0439,0,0.0223,0.0265,0.0336,0.0439,0.0542,0.056,0.0692,0.0798,0.0962,0.1027,0.1091,0.094,0.0563,0.0144,-0.0419,-0.072,-0.0846,-0.09,-0.1022,-0.1051,-0.0703,-0.0716,-0.0754,-0.0754,-0.0754,-0.0753,-0.0753,-0.0753,0.0256,0.034,0.0379,0.0555,0.0637,0.0796,0.0889,0.1044,0.1134,0.1276,0.1286,0.1231,0.088,-0.0172,-0.0891,-0.1056,-0.1285,-0.133,-0.1443,-0.1236,-0.1218,-0.1201,-0.1235,-0.1381,-0.1382,-0.1745,-0.1749,-0.1752]}],[{"header":{"parameterUnit":"m.s-1","parameterCategory":2,"la1":30.2991,"la2":30.254,"lo1":-89.0895,"lo2":-89.0444,"dx":0.0017,"dy":0.0017,"nx":28,"ny":28,"refTime":"2022-11-17T15:00:00:Z","depth":"2","parameterNumber":2,"parameterNumberName":"U-component_of_CURRENTS"},"data":[0,0,0,0,0,0,0,0,0,0,0,0,0,0,0,0,0,0,0,0,0,0,0,0,0,0,0,0,0,0,0,0,0,0,0,0,0,0,0,0,0,0,0,0,0,0,0,0,0,0,0,0,0,0,0,0,0,0,0.2025,0.2025,0,0.207,0.2071,0.2071,0.2118,0.2118,0.2119,0.2119,0.2188,0.219,0.2191,0,0,0,0,0,0,0,0,0,0,0,0,0,0.1946,0.1947,0.2025,0.2025,0.2026,0.207,0.2071,0.2072,0.2118,0.2118,0.2119,0.2119,0.2188,0.2189,0.2191,0,0,0,0,0,0,0,0,0,0,0,0,0,0.1986,0.1948,0.2025,0.2053,0.2055,0.207,0.2071,0.2072,0.2117,0.2118,0.2119,0.2119,0.2187,0.2189,0.2191,0.2191,0,0,0.2198,0.2199,0,0,0,0,0,0,0,0,0.1984,0.199,0.2048,0.2051,0.2054,0.2087,0.2068,0.2112,0.2117,0.2096,0.2119,0.212,0.2155,0.216,0.2169,0.2194,0.2197,0.2198,0.2199,0.22,0.2201,0,0,0,0,0,0,0,0.1981,0.1988,0.2045,0.2048,0.2052,0.2051,0.2058,0.2077,0.2123,0.2098,0.2101,0.2103,0.2157,0.2167,0.2171,0.2198,0.2198,0.22,0.2201,0.2202,0.2276,0.2277,0,0,0,0,0,0,0.1973,0.1985,0.2043,0.2046,0.2018,0.2052,0.206,0.2077,0.2122,0.2129,0.2102,0.2104,0.2163,0.2169,0.2174,0.2242,0.22,0.2202,0.2203,0.2275,0.2276,0.2277,0,0,0,0,0,0,0.1971,0.1978,0.2042,0.2014,0.2022,0.2053,0.2072,0.2078,0.2107,0.2125,0.2133,0.2127,0.2164,0.2171,0.2211,0.2242,0.2203,0.2205,0.2275,0.2276,0.2277,0.2336,0,0,0,0,0,0,0.1969,0.1978,0.1991,0.2014,0.2023,0.2069,0.2071,0.2078,0.2105,0.2109,0.2148,0.2154,0.2165,0.2207,0.2213,0.2245,0.2207,0.2274,0.2275,0.2276,0.2333,0.2339,0.2344,0,0,0,0,0,0.1967,0.1977,0.1992,0.1998,0.2039,0.207,0.2076,0.21,0.2106,0.2127,0.2151,0.2154,0.2219,0.221,0.2216,0.2249,0.2273,0.2275,0.2276,0.2331,0.2338,0.2344,0,0,0,0,0,0,0.1953,0.1983,0.2,0.2021,0.2053,0.2077,0.2091,0.2108,0.2143,0.215,0.2167,0.2175,0.2222,0.2221,0.221,0.2271,0.2245,0.2248,0.2284,0.2291,0.2296,0.2309,0.2209,0,0,0,0,0,0.1954,0.1968,0.2005,0.2023,0.2041,0.207,0.2085,0.2107,0.2135,0.2152,0.218,0.2203,0.2229,0.2249,0.2269,0.2304,0.2302,0.2326,0.2331,0.2336,0.2348,0.2364,0.2372,0.2282,0.2282,0.2282,0,0,0.1953,0.1969,0.198,0.202,0.2045,0.2076,0.2083,0.2115,0.2148,0.2152,0.2208,0.2227,0.2241,0.2285,0.2305,0.2292,0.236,0.2338,0.2342,0.2352,0.2366,0.2375,0.2383,0.2283,0.2283,0.2283,0,0,0.1957,0.1978,0.1998,0.2024,0.2063,0.2083,0.2097,0.2142,0.2174,0.2223,0.2234,0.2274,0.2312,0.2337,0.2349,0.2393,0.2387,0.2395,0.2439,0.2454,0.2462,0.2469,0.2478,0.2485,0.2399,0.2399,0.2399,0,0.1962,0.1992,0.2009,0.2037,0.206,0.209,0.2126,0.2158,0.2213,0.2241,0.2249,0.232,0.2338,0.239,0.2413,0.2409,0.2411,0.2417,0.2463,0.247,0.2476,0.2483,0.2491,0.2402,0.2402,0.2402,0.2401,0,0.1984,0.2013,0.2026,0.2072,0.2098,0.2132,0.2177,0.2215,0.2251,0.2285,0.2354,0.2387,0.2424,0.2442,0.2448,0.2503,0.2489,0.2468,0.245,0.2489,0.2494,0.25,0.2407,0.2406,0.2405,0.2404,0,0,0.1986,0.2037,0.2042,0.2071,0.2123,0.2146,0.2199,0.226,0.2296,0.2358,0.2411,0.2476,0.2493,0.2508,0.2523,0.2555,0.2607,0.254,0.2539,0.2555,0.2641,0.2597,0.26,0.2595,0.2596,0.2597,0.2627,0,0.2011,0.2054,0.208,0.2131,0.2161,0.2202,0.2247,0.2298,0.2346,0.2401,0.2453,0.2505,0.2516,0.2542,0.2577,0.2597,0.2627,0.2601,0.2595,0.2595,0.2557,0.2607,0.2424,0.2432,0.2633,0.2634,0.2635,0,0.2028,0.2052,0.2107,0.2162,0.2183,0.2218,0.2284,0.2335,0.2406,0.2443,0.2499,0.253,0.2598,0.2592,0.2657,0.2639,0.265,0.2666,0.2667,0.2612,0.2565,0.2425,0.2436,0.2646,0.2645,0.2644,0.2643,0,0.2001,0.207,0.2111,0.2132,0.2202,0.2238,0.2281,0.2348,0.24,0.2471,0.2509,0.257,0.2622,0.2643,0.2686,0.2669,0.275,0.2714,0.2687,0.2683,0.252,0.2499,0.2758,0.2758,0.2758,0.2758,0.2758,0,0.2001,0.2032,0.2104,0.2121,0.2169,0.223,0.2293,0.2335,0.2419,0.2477,0.2531,0.2586,0.2643,0.2694,0.2699,0.2722,0.2752,0.2712,0.2696,0.2534,0.2516,0.269,0.2682,0.2759,0.2759,0.2758,0.2758,0,0.196,0.2008,0.2057,0.2135,0.2155,0.2191,0.2285,0.2332,0.2416,0.249,0.2517,0.262,0.2679,0.2722,0.2771,0.275,0.2761,0.2759,0.257,0.2532,0.2676,0.2671,0.2716,0.2715,0.2714,0.2713,0.2713,0,0.1961,0.1977,0.2046,0.2067,0.2104,0.2166,0.2206,0.2304,0.2362,0.2505,0.2539,0.264,0.2676,0.2737,0.2732,0.2724,0.2764,0.2541,0.2477,0.2697,0.2676,0.2672,0.2668,0.228,0.2275,0.2272,0.2269,0,0.194,0.1958,0.1978,0.2022,0.2065,0.2108,0.2181,0.2219,0.2348,0.2399,0.2483,0.2526,0.263,0.2552,0.2578,0.2545,0.252,0.2472,0.275,0.2325,0.2289,0.2268,0.2277,0.2239,0.2242,0.2244,0.2246,0.2247,0.1913,0.1916,0.1936,0.1967,0.2008,0.2032,0.2037,0.211,0.2155,0.222,0.2348,0.2344,0.2402,0.2342,0.2279,0.2241,0.2405,0.2279,0.2288,0.23,0.2251,0.2216,0.2143,0.2145,0.2147,0.2149,0.215,0,0.1858,0.1854,0.1884,0.1895,0.1898,0.1958,0.2003,0.1975,0.1961,0.2064,0.2099,0.195,0.1933,0.1983,0.1898,0.1907,0.187,0.1812,0.1741,0.1775,0.1804,0.1726,0.148,0.1477,0.1475,0.1473,0,0,0.1811,0.1792,0.1799,0.1766,0.1793,0.1768,0.1771,0.1717,0.1748,0.1692,0.1694,0.1863,0.1949,0.1685,0.1666,0.1559,0.1648,0.1501,0.205,0.2003,0.2029,0.2097,0.202,0,0,0,0,0]},{"header":{"parameterUnit":"m.s-1","parameterCategory":2,"la1":30.2991,"la2":30.254,"lo1":-89.0895,"lo2":-89.0444,"dx":0.0017,"dy":0.0017,"nx":28,"ny":28,"refTime":"2022-11-17T15:00:00:Z","depth":"2","parameterNumber":3,"parameterNumberName":"V-component_of_CURRENTS"},"data":[0,0,0,0,0,0,0,0,0,0,0,0,0,0,0,0,0,0,0,0,0,0,0,0,0,0,0,0,0,0,0,0,0,0,0,0,0,0,0,0,0,0,0,0,0,0,0,0,0,0,0,0,0,0,0,0,0,0,-0.0008,-0.0008,0,-0.0076,-0.0077,-0.0078,-0.0142,-0.0142,-0.0142,-0.0142,-0.0304,-0.0308,-0.0312,0,0,0,0,0,0,0,0,0,0,0,0,0,0.0064,0.0063,-0.0008,-0.0008,-0.0008,-0.0076,-0.0077,-0.0079,-0.0142,-0.0142,-0.0142,-0.0142,-0.0303,-0.0308,-0.0312,0,0,0,0,0,0,0,0,0,0,0,0,0,0.0013,0.0062,-0.0008,-0.0044,-0.0047,-0.0075,-0.0077,-0.0079,-0.0141,-0.0142,-0.0142,-0.0143,-0.0301,-0.0307,-0.0313,-0.0343,0,0,-0.0332,-0.0334,0,0,0,0,0,0,0,0,0.0016,0.001,-0.0038,-0.0041,-0.0045,-0.0096,-0.011,-0.017,-0.0141,-0.0112,-0.0142,-0.0143,-0.0239,-0.025,-0.0269,-0.035,-0.0357,-0.0332,-0.0336,-0.0339,-0.034,0,0,0,0,0,0,0,0.002,0.0012,-0.0041,-0.0038,-0.0043,-0.0057,-0.0065,-0.0122,-0.0179,-0.0114,-0.0118,-0.0116,-0.0243,-0.0263,-0.0273,-0.036,-0.0332,-0.0337,-0.0341,-0.0344,-0.05,-0.05,0,0,0,0,0,0,0.004,0.0016,-0.0038,-0.0042,-0.0008,-0.0058,-0.0067,-0.0084,-0.0176,-0.0188,-0.0116,-0.0119,-0.0252,-0.0266,-0.0279,-0.0332,-0.0338,-0.0344,-0.0348,-0.0499,-0.05,-0.05,0,0,0,0,0,0,0.0041,0.0035,-0.0035,-0.0009,-0.0018,-0.0058,-0.0076,-0.0085,-0.0111,-0.0175,-0.019,-0.0132,-0.0253,-0.0271,-0.0341,-0.0338,-0.0347,-0.0352,-0.0498,-0.0499,-0.05,-0.043,0,0,0,0,0,0,0.0043,0.0035,0.0026,-0.0008,-0.0019,-0.0045,-0.0075,-0.0086,-0.0106,-0.0111,-0.0194,-0.0209,-0.0255,-0.0331,-0.0347,-0.0347,-0.0357,-0.0498,-0.0499,-0.05,-0.0431,-0.0428,-0.0425,0,0,0,0,0,0.0046,0.0046,0.0025,0.0019,-0.003,-0.0044,-0.0051,-0.0084,-0.0106,-0.0112,-0.0179,-0.0207,-0.0348,-0.0337,-0.0355,-0.0356,-0.0497,-0.0499,-0.05,-0.0433,-0.0428,-0.0425,0,0,0,0,0,0,0.0069,0.0039,0.0016,0.0004,-0.0017,-0.0052,-0.0058,-0.0083,-0.014,-0.0155,-0.0222,-0.0242,-0.0299,-0.0342,-0.0329,-0.0405,-0.0424,-0.0429,-0.0367,-0.0364,-0.036,-0.0318,-0.0362,0,0,0,0,0,0.0072,0.0064,0.0031,0.0022,0.0013,-0.0027,-0.0039,-0.0063,-0.011,-0.0135,-0.0191,-0.0258,-0.0316,-0.0351,-0.0407,-0.0455,-0.0467,-0.0466,-0.0463,-0.046,-0.0439,-0.0463,-0.0459,-0.0504,-0.0504,-0.0504,0,0,0.0076,0.0063,0.0054,0.0027,0.0004,0.0002,-0.0037,-0.0052,-0.0062,-0.0145,-0.0187,-0.0251,-0.0327,-0.0378,-0.0406,-0.0415,-0.0454,-0.0461,-0.0458,-0.0438,-0.0464,-0.0459,-0.0455,-0.0505,-0.0504,-0.0504,0,0,0.01,0.007,0.0072,0.0062,0.004,0.0021,0.0019,-0.0023,-0.0053,-0.0101,-0.0162,-0.0221,-0.0312,-0.0357,-0.0395,-0.0409,-0.0436,-0.0433,-0.0384,-0.0408,-0.0404,-0.04,-0.0401,-0.0398,-0.0431,-0.0431,-0.0431,0,0.0107,0.01,0.0073,0.0081,0.0079,0.0034,0.0041,0.001,-0.005,-0.0066,-0.0106,-0.0225,-0.0295,-0.0345,-0.0355,-0.0398,-0.041,-0.039,-0.04,-0.0397,-0.0395,-0.0397,-0.0394,-0.0427,-0.0428,-0.0428,-0.0428,0,0.0133,0.0128,0.0134,0.0126,0.0123,0.012,0.0088,0.007,0.0027,-0.0002,-0.0064,-0.0166,-0.0225,-0.0266,-0.0321,-0.0341,-0.0353,-0.039,-0.04,-0.0385,-0.0389,-0.0388,-0.0423,-0.0424,-0.0425,-0.0426,0,0,0.0156,0.0149,0.0152,0.0162,0.0144,0.0152,0.0141,0.0127,0.0131,0.0054,0.0048,-0.007,-0.0112,-0.0158,-0.0237,-0.0272,-0.0275,-0.0319,-0.0322,-0.03,-0.0308,-0.0314,-0.0313,-0.0315,-0.0315,-0.0314,-0.0314,0,0.0182,0.021,0.0195,0.0226,0.0241,0.0211,0.0212,0.0197,0.0165,0.015,0.0055,0.0009,-0.0075,-0.0114,-0.0157,-0.0248,-0.027,-0.027,-0.0342,-0.0343,-0.0335,-0.0312,-0.0297,-0.0296,-0.0313,-0.0313,-0.0312,0,0.0215,0.0235,0.0258,0.0284,0.0286,0.0297,0.0313,0.0303,0.0278,0.0249,0.0204,0.0135,0.0068,-0.0013,-0.0121,-0.0116,-0.0194,-0.0266,-0.0268,-0.0293,-0.0347,-0.0319,-0.0293,-0.031,-0.0311,-0.0311,-0.0311,0,0.0265,0.0287,0.0308,0.0314,0.0327,0.0337,0.0345,0.0337,0.034,0.0317,0.0318,0.0238,0.0182,0.0086,-0.0061,-0.0087,-0.0171,-0.0227,-0.0298,-0.0299,-0.0308,-0.031,-0.0284,-0.0284,-0.0284,-0.0284,-0.0284,0,0.0308,0.0334,0.0334,0.0354,0.0405,0.0388,0.0429,0.0431,0.0422,0.0457,0.037,0.0373,0.02,0.0125,-0.0002,-0.013,-0.0119,-0.0268,-0.0296,-0.0284,-0.0284,-0.0322,-0.0326,-0.0284,-0.0284,-0.0284,-0.0284,0,0.0357,0.0347,0.039,0.0411,0.0427,0.0465,0.0499,0.053,0.0507,0.055,0.0545,0.0473,0.0383,0.022,0.0061,-0.0057,-0.018,-0.0231,-0.0192,-0.0217,-0.0302,-0.0303,-0.0294,-0.0294,-0.0294,-0.0294,-0.0294,0,0.037,0.0393,0.0445,0.048,0.049,0.0538,0.0578,0.0581,0.0623,0.0627,0.0663,0.0575,0.055,0.0321,0.0095,-0.0099,-0.0153,-0.022,-0.0279,-0.0272,-0.0302,-0.0303,-0.0303,-0.0261,-0.026,-0.026,-0.026,0,0.0416,0.043,0.0475,0.0546,0.0599,0.0673,0.0733,0.0783,0.0796,0.0832,0.0874,0.0846,0.0613,0.041,0.0116,-0.0022,-0.0187,-0.0223,-0.0221,-0.0263,-0.0242,-0.0271,-0.0272,-0.0259,-0.0259,-0.0259,-0.0259,-0.0259,0.0457,0.0495,0.0547,0.0624,0.0695,0.0801,0.0882,0.0948,0.1038,0.109,0.1044,0.0994,0.0731,0.0357,0.0106,-0.0173,-0.0169,-0.0272,-0.0272,-0.0272,-0.0271,-0.0252,-0.0268,-0.0268,-0.0268,-0.0269,-0.0269,0,0.0505,0.0548,0.0618,0.0725,0.0822,0.0843,0.0981,0.1061,0.1195,0.1204,0.1216,0.0978,0.0719,0.0414,0.0002,-0.0234,-0.0268,-0.031,-0.0304,-0.0303,-0.0302,-0.0304,-0.031,-0.031,-0.0311,-0.0312,0,0,0.0538,0.0613,0.0649,0.0817,0.0888,0.1037,0.1129,0.1249,0.1294,0.1328,0.1272,0.1154,0.0791,0.0492,0.016,-0.0079,-0.0138,-0.0126,-0.0067,-0.0019,-0.0016,-0.0252,-0.0249,0,0,0,0,0]}],[{"header":{"parameterUnit":"m.s-1","parameterCategory":2,"la1":30.2991,"la2":30.254,"lo1":-89.0895,"lo2":-89.0444,"dx":0.0017,"dy":0.0017,"nx":28,"ny":28,"refTime":"2022-11-17T15:00:00:Z","depth":"4","parameterNumber":2,"parameterNumberName":"U-component_of_CURRENTS"},"data":[0,0,0,0,0,0,0,0,0,0,0,0,0,0,0,0,0,0,0,0,0,0,0,0,0,0,0,0,0,0,0,0,0,0,0,0,0,0,0,0,0,0,0,0,0,0,0,0,0,0,0,0,0,0,0,0,0,0,0.0911,0.0912,0,0.0912,0.0911,0.0911,0.0939,0.0941,0.0942,0.0943,0.0899,0.0897,0.0895,0,0,0,0,0,0,0,0,0,0,0,0,0,0.0849,0.085,0.0911,0.0912,0.0912,0.0912,0.0911,0.0911,0.0939,0.0941,0.0942,0.0943,0.09,0.0897,0.0894,0,0,0,0,0,0,0,0,0,0,0,0,0,0.0861,0.085,0.0911,0.0929,0.0931,0.0912,0.0911,0.0911,0.0939,0.0941,0.0942,0.0944,0.0901,0.0897,0.0894,0.0838,0,0,0.0884,0.0882,0,0,0,0,0,0,0,0,0.0861,0.0863,0.0926,0.0928,0.0931,0.0931,0.0874,0.0886,0.0938,0.0931,0.0943,0.0945,0.0907,0.0903,0.0894,0.0836,0.0834,0.0883,0.0881,0.088,0.0879,0,0,0,0,0,0,0,0.086,0.0863,0.0907,0.0927,0.0929,0.0909,0.0913,0.0875,0.0905,0.0932,0.0935,0.0942,0.0908,0.0897,0.0893,0.0834,0.0883,0.088,0.0878,0.0877,0.0957,0.0961,0,0,0,0,0,0,0.0872,0.0862,0.0907,0.0907,0.0904,0.0909,0.0913,0.0925,0.0906,0.0907,0.0941,0.0943,0.0902,0.0897,0.0891,0.0996,0.088,0.0877,0.0875,0.0953,0.0958,0.0962,0,0,0,0,0,0,0.087,0.0876,0.0907,0.0888,0.0891,0.091,0.0922,0.0925,0.0943,0.0914,0.0914,0.096,0.0903,0.0896,0.0846,0.0988,0.0875,0.0872,0.0948,0.0954,0.096,0.1094,0,0,0,0,0,0,0.0869,0.0875,0.0896,0.0889,0.0893,0.092,0.0921,0.0924,0.0945,0.0949,0.093,0.0926,0.0904,0.0851,0.0843,0.0981,0.0869,0.0942,0.0951,0.0958,0.1084,0.1104,0.1121,0,0,0,0,0,0.0866,0.0884,0.0897,0.0903,0.0919,0.0921,0.0921,0.0936,0.0945,0.0957,0.0914,0.0929,0.0902,0.0846,0.0837,0.0979,0.0939,0.0948,0.0957,0.1076,0.11,0.1121,0,0,0,0,0,0,0.0868,0.0889,0.0903,0.0928,0.0939,0.0929,0.0945,0.0947,0.0924,0.0936,0.0896,0.0887,0.0949,0.0909,0.0851,0.1034,0.0958,0.0966,0.1053,0.1075,0.1093,0.1018,0.0867,0,0,0,0,0,0.0879,0.0906,0.0912,0.0939,0.0946,0.0948,0.0955,0.097,0.0947,0.0944,0.0934,0.0942,0.0976,0.0969,0.0993,0.1003,0.0967,0.112,0.1138,0.1153,0.1092,0.1207,0.1229,0.0993,0.0993,0.0993,0,0,0.0885,0.0906,0.092,0.0943,0.0953,0.0965,0.0957,0.0985,0.1003,0.0937,0.0961,0.1,0.0997,0.1064,0.1093,0.1038,0.1196,0.1165,0.1178,0.1106,0.1219,0.1242,0.1262,0.0999,0.0998,0.0997,0,0,0.0903,0.0934,0.0954,0.0971,0.1003,0.1002,0.1016,0.1031,0.1049,0.1028,0.1071,0.1133,0.1119,0.1187,0.1202,0.1313,0.1309,0.1402,0.1401,0.1518,0.1537,0.1553,0.1496,0.1506,0.1389,0.1389,0.1389,0,0.0915,0.0939,0.096,0.0985,0.1004,0.1021,0.104,0.1051,0.1056,0.1081,0.1049,0.1147,0.1173,0.1279,0.1343,0.1359,0.1359,0.1317,0.1539,0.1555,0.1569,0.1506,0.1516,0.1397,0.1396,0.1395,0.1394,0,0.0937,0.0965,0.098,0.1019,0.1044,0.1067,0.109,0.1135,0.1144,0.1157,0.1252,0.1259,0.1322,0.1411,0.1377,0.1563,0.1505,0.1571,0.1473,0.1601,0.1526,0.1534,0.1408,0.1405,0.1403,0.1401,0,0,0.0933,0.0981,0.099,0.1016,0.1066,0.1087,0.1142,0.1187,0.1236,0.1257,0.1306,0.1403,0.1449,0.1469,0.1539,0.1601,0.1717,0.1617,0.162,0.1533,0.1859,0.1782,0.178,0.1855,0.1858,0.1861,0.1748,0,0.0939,0.0979,0.1008,0.1056,0.1074,0.1132,0.1175,0.1242,0.1271,0.1331,0.1383,0.1459,0.1467,0.1534,0.1613,0.1711,0.1749,0.173,0.1763,0.1759,0.1662,0.1794,0.1872,0.1753,0.1755,0.1756,0.1756,0,0.0942,0.0972,0.101,0.108,0.1097,0.1142,0.1245,0.1289,0.1387,0.1413,0.149,0.1528,0.1627,0.163,0.1753,0.175,0.1798,0.1824,0.1825,0.1694,0.17,0.1613,0.1768,0.1767,0.1767,0.1766,0.1765,0,0.0918,0.0974,0.1005,0.1029,0.1109,0.117,0.1229,0.1334,0.138,0.1493,0.153,0.1625,0.1687,0.1765,0.1814,0.1817,0.1902,0.1937,0.187,0.1857,0.1889,0.1873,0.2027,0.2027,0.2028,0.2028,0.2028,0,0.0899,0.0933,0.1006,0.1028,0.1099,0.1175,0.1259,0.1344,0.1441,0.1504,0.1594,0.1641,0.1746,0.1801,0.1825,0.1839,0.1932,0.1839,0.1859,0.1941,0.1934,0.189,0.1875,0.2023,0.2024,0.2025,0.2026,0,0.0866,0.0906,0.095,0.1043,0.1087,0.1149,0.1268,0.1319,0.1437,0.1522,0.1562,0.1677,0.1757,0.1796,0.1901,0.1858,0.1882,0.1879,0.1843,0.1867,0.1715,0.1709,0.1733,0.1731,0.1728,0.1726,0.1725,0,0.0834,0.0856,0.0955,0.0989,0.1039,0.1132,0.1191,0.1312,0.1359,0.1528,0.1556,0.1677,0.1743,0.1744,0.1836,0.1823,0.1853,0.1779,0.1822,0.1685,0.1702,0.17,0.1698,0.1721,0.172,0.1719,0.1719,0,0.0785,0.0836,0.0881,0.0944,0.101,0.1065,0.1162,0.1185,0.1324,0.1436,0.1516,0.1567,0.1652,0.1694,0.1716,0.1726,0.1776,0.1754,0.1759,0.1798,0.167,0.1689,0.169,0.171,0.1712,0.1712,0.1713,0,0.0754,0.0771,0.0832,0.0891,0.0955,0.0986,0.1043,0.1109,0.1175,0.136,0.1383,0.1527,0.1636,0.1646,0.167,0.1671,0.1654,0.1577,0.1591,0.1601,0.1628,0.145,0.1429,0,0,0,0,0,0.0719,0.0738,0.0771,0.0821,0.0873,0.0919,0.1014,0.1067,0.12,0.1222,0.13,0.138,0.1451,0.1518,0.1497,0.1618,0.1652,0.1584,0.1568,0.1664,0.1674,0.1728,0,0,0,0,0,0,0.0704,0.0733,0.0746,0.0748,0.0768,0.0816,0.0874,0.0966,0.0981,0.1128,0.1174,0.1289,0.1375,0.1454,0.147,0.149,0.1448,0.1671,0.1667,0.1659,0.1668,0.1675,0.1734,0,0,0,0,0]},{"header":{"parameterUnit":"m.s-1","parameterCategory":2,"la1":30.2991,"la2":30.254,"lo1":-89.0895,"lo2":-89.0444,"dx":0.0017,"dy":0.0017,"nx":28,"ny":28,"refTime":"2022-11-17T15:00:00:Z","depth":"4","parameterNumber":3,"parameterNumberName":"V-component_of_CURRENTS"},"data":[0,0,0,0,0,0,0,0,0,0,0,0,0,0,0,0,0,0,0,0,0,0,0,0,0,0,0,0,0,0,0,0,0,0,0,0,0,0,0,0,0,0,0,0,0,0,0,0,0,0,0,0,0,0,0,0,0,0,0.0382,0.0382,0,0.0394,0.0394,0.0395,0.0445,0.0446,0.0447,0.0448,0.0622,0.0625,0.0629,0,0,0,0,0,0,0,0,0,0,0,0,0,0.0398,0.0398,0.0382,0.0382,0.0382,0.0394,0.0394,0.0395,0.0445,0.0446,0.0447,0.0448,0.0621,0.0625,0.063,0,0,0,0,0,0,0,0,0,0,0,0,0,0.0401,0.0398,0.0382,0.0406,0.0408,0.0394,0.0394,0.0395,0.0445,0.0446,0.0447,0.0449,0.0619,0.0625,0.063,0.0638,0,0,0.0648,0.065,0,0,0,0,0,0,0,0,0.0401,0.0401,0.0403,0.0405,0.0407,0.0417,0.0464,0.0483,0.0444,0.0434,0.0448,0.0449,0.0566,0.0576,0.0576,0.0646,0.0654,0.0648,0.0652,0.0654,0.0656,0,0,0,0,0,0,0,0.0401,0.0401,0.039,0.0402,0.0405,0.0415,0.0417,0.0467,0.0497,0.0435,0.0438,0.0434,0.0568,0.0571,0.0581,0.0656,0.0648,0.0653,0.0656,0.0659,0.0841,0.0843,0,0,0,0,0,0,0.0392,0.04,0.0389,0.039,0.0404,0.0413,0.0416,0.0415,0.0493,0.0504,0.0433,0.0436,0.056,0.0575,0.0588,0.0679,0.0654,0.0659,0.0662,0.084,0.0842,0.0843,0,0,0,0,0,0,0.0392,0.0391,0.0389,0.0393,0.0393,0.0411,0.0409,0.0414,0.0432,0.0489,0.0505,0.0448,0.0562,0.058,0.0657,0.0684,0.0662,0.0667,0.0838,0.084,0.0842,0.0813,0,0,0,0,0,0,0.0393,0.0391,0.0395,0.0392,0.0392,0.0393,0.0408,0.0413,0.0425,0.043,0.0507,0.0523,0.0564,0.0648,0.0662,0.0691,0.0671,0.0836,0.0839,0.0842,0.0812,0.0814,0.0816,0,0,0,0,0,0.0393,0.0396,0.0395,0.0394,0.0395,0.0392,0.0394,0.0413,0.0425,0.0434,0.0493,0.0521,0.0676,0.0653,0.067,0.0701,0.0835,0.0838,0.0841,0.0812,0.0814,0.0816,0,0,0,0,0,0,0.0411,0.0401,0.04,0.0401,0.04,0.04,0.041,0.0415,0.0463,0.0478,0.0536,0.0557,0.0645,0.0672,0.0646,0.0764,0.0762,0.0768,0.0733,0.0736,0.0738,0.0687,0.0676,0,0,0,0,0,0.0411,0.0409,0.0401,0.0402,0.0402,0.0405,0.0408,0.0415,0.0448,0.0469,0.0519,0.0587,0.0666,0.0698,0.077,0.0818,0.0779,0.0852,0.0853,0.0854,0.0827,0.075,0.074,0.0854,0.0854,0.0854,0,0,0.0419,0.0411,0.0413,0.0405,0.0407,0.0419,0.0412,0.0417,0.0437,0.0483,0.0541,0.0604,0.0686,0.0758,0.0797,0.0783,0.0813,0.0858,0.0858,0.083,0.0752,0.074,0.0729,0.0856,0.0856,0.0855,0,0,0.0435,0.0426,0.0434,0.0434,0.0431,0.043,0.0432,0.0437,0.0453,0.05,0.0558,0.0609,0.072,0.0762,0.0806,0.0851,0.0837,0.0904,0.0854,0.0781,0.0769,0.0758,0.0725,0.0711,0.0886,0.0886,0.0886,0,0.0447,0.0458,0.0437,0.0448,0.0456,0.0439,0.0458,0.0464,0.0496,0.0506,0.0524,0.065,0.0711,0.0785,0.0807,0.0849,0.0818,0.0838,0.0776,0.0764,0.0752,0.0721,0.0705,0.0885,0.0885,0.0886,0.0886,0,0.047,0.0487,0.0492,0.0502,0.0502,0.0514,0.0511,0.0519,0.053,0.0533,0.0594,0.065,0.071,0.0754,0.0798,0.0784,0.0794,0.0794,0.0753,0.0738,0.0708,0.0692,0.0884,0.0884,0.0885,0.0885,0,0,0.0479,0.0506,0.0512,0.0533,0.0534,0.0537,0.0555,0.0561,0.0571,0.0583,0.0594,0.0688,0.0679,0.0725,0.0774,0.0708,0.0621,0.0712,0.0708,0.0649,0.0479,0.0466,0.0448,0.06,0.0596,0.0594,0.0499,0,0.0511,0.0549,0.0552,0.0596,0.0615,0.0606,0.0624,0.062,0.062,0.0621,0.0623,0.0673,0.0682,0.0718,0.0646,0.0658,0.0574,0.0647,0.0529,0.0525,0.0488,0.0426,0.0583,0.0487,0.0483,0.0481,0.0479,0,0.0531,0.0557,0.0605,0.0644,0.0651,0.0676,0.0682,0.0699,0.0679,0.0673,0.0658,0.0665,0.0635,0.0619,0.0519,0.0568,0.0502,0.0469,0.0464,0.0438,0.048,0.0503,0.045,0.0452,0.0455,0.0456,0.0458,0,0.0538,0.0594,0.0636,0.065,0.0685,0.0709,0.0728,0.0718,0.073,0.0703,0.0698,0.0645,0.0642,0.0527,0.0465,0.0482,0.0323,0.0341,0.0255,0.0256,0.0309,0.0322,0.0192,0.0192,0.0192,0.0192,0.0192,0,0.0561,0.06,0.0651,0.0678,0.0728,0.0738,0.0782,0.0777,0.0774,0.0783,0.073,0.0717,0.0606,0.0522,0.0435,0.0301,0.0287,0.0214,0.0205,0.0311,0.0324,0.03,0.0313,0.0189,0.0189,0.019,0.0191,0,0.0561,0.0598,0.0656,0.0715,0.0737,0.0772,0.0833,0.0855,0.0843,0.0848,0.0841,0.076,0.065,0.0534,0.037,0.0284,0.0155,0.01,0.0236,0.0244,0.0146,0.0161,-0.0015,-0.0017,-0.0018,-0.0019,-0.002,0,0.0571,0.0597,0.068,0.072,0.076,0.0821,0.0861,0.0884,0.0908,0.0878,0.0878,0.0776,0.0708,0.0469,0.0337,0.0135,0.0105,0.0032,0.0051,0.0103,0.0113,0.013,0.0146,-0.0023,-0.0023,-0.0024,-0.0024,0,0.0583,0.0611,0.0658,0.0739,0.0804,0.0872,0.0937,0.0952,0.0969,0.0962,0.089,0.0764,0.063,0.0456,0.0294,0.0153,0.0079,0.0015,0.0018,0.0035,0.0091,0.0106,0.0124,-0.0029,-0.0029,-0.0028,-0.0028,0,0.0592,0.0621,0.0681,0.0749,0.0832,0.0898,0.0937,0.0963,0.0979,0.0945,0.0919,0.0773,0.0692,0.0464,0.032,0.0173,0.0136,0.0085,0.0083,0.0087,0.0144,0.0233,0.0112,0,0,0,0,0,0.0588,0.0618,0.0685,0.0764,0.0848,0.0897,0.0971,0.1001,0.1019,0.0969,0.0942,0.0814,0.0578,0.0482,0.0328,0.0293,0.0115,0.0107,0.0057,-0.0059,-0.0053,-0.0006,0,0,0,0,0,0,0.0586,0.0643,0.0674,0.0762,0.0817,0.0912,0.0963,0.098,0.0954,0.0942,0.0824,0.0761,0.0544,0.0663,0.0319,0.0275,0.0218,0.0004,-0.0,-0.0063,-0.0057,-0.0052,-0.0002,0,0,0,0,0]}]]